Home   Weather   Longueuil   Past weeks

Flag for Canada Past Weather in Longueuil, Quebec, Canada — Yesterday and Last 2 Weeks

Now
26 °F

Chilly.


Feels Like: 18 °F
Forecast: 26 / 32 °F
Wind: 8 mph from North

Location: Mc Tavish

Current Time: Dec 5, 2016 at 3:41:15 pm

Latest Report: Dec 5, 2016 at 3:00 pm


Visibility: N/A

Pressure: 29.88 "Hg

Humidity: 95%

Dew Point: 25 °F

Location of LongueuilLocation

Past Weather in Longueuil — Graph

°F

Longueuil Temperature Yesterday

Maximum temperature yesterday: 34 °F (at 2:00 pm)
Minimum temperature yesterday: 27 °F (at 11:00 pm)
Average temperature yesterday: 30 °F

High & Low Weather Summary for the Past Weeks

 TemperatureHumidityPressure
High47 °F (Dec 1, 9:00 am)100% (Nov 20, 2:00 pm)30.34 "Hg (Nov 20, 2:00 pm)
Low25 °F (Dec 5, 8:00 am)57% (Dec 4, 2:00 pm)29.18 "Hg (Nov 20, 11:00 pm)
Average33 °F88%29.93 "Hg
* Reported Nov 20 2:00 pm — Dec 5 2:00 pm, Longueuil, Weather by CustomWeather, © 2016

Note: Actual official high and low records may vary slightly from our data, if they occured in-between our weather recording intervals... More about our weather records

Advertising

Longueuil Weather History for the Previous 24 Hours

Scroll right to see more
 ConditionsComfort  
Time TempWeatherWind HumidityBarometerVisibility
2:00 pm
Mon, Dec 5
27 °FChilly.6 mph96%29.84 "HgN/A
1:00 pm27 °FChilly.6 mph96%29.84 "HgN/A
12:00 pm27 °FChilly.3 mph96%29.85 "HgN/A
11:00 am26 °FChilly.3 mph96%29.87 "HgN/A
10:00 am26 °FChilly.2 mph97%29.90 "HgN/A
9:00 am25 °FChilly.5 mph96%29.93 "HgN/A
8:00 am25 °FCold.5 mph90%29.94 "HgN/A
7:00 am25 °FCold.3 mph92%29.98 "HgN/A
6:00 am25 °FChilly.3 mph87%30.01 "HgN/A
5:00 am25 °FChilly.3 mph83%30.02 "HgN/A
4:00 am26 °FChilly.3 mph83%30.03 "HgN/A
3:00 am27 °FChilly.2 mph76%30.06 "HgN/A
2:00 am26 °FChilly.2 mph80%30.09 "HgN/A
1:00 am27 °FChilly.2 mph82%30.11 "HgN/A
12:00 am27 °FChilly.1 mph81%30.13 "HgN/A
11:00 pm
Sun, Dec 4
27 °FChilly.3 mph82%30.16 "HgN/A
10:00 pm28 °FChilly.5 mph77%30.17 "HgN/A
9:00 pm29 °FChilly.2 mph77%30.17 "HgN/A
8:00 pm29 °FChilly.3 mph74%30.22 "HgN/A
7:00 pm30 °FChilly.3 mph72%30.23 "HgN/A
6:00 pm31 °FChilly.3 mph69%30.23 "HgN/A
5:00 pm30 °FChilly.2 mph74%30.23 "HgN/A
4:00 pm32 °FChilly.1 mph63%30.24 "HgN/A
3:00 pm32 °FChilly.3 mph62%30.24 "HgN/A
Weather by CustomWeather, © 2016

See weather overviewHow to use our weather pages